Location: Chassagnes
(44.4047°N, 4.1657°E)
Time: 11:57:40
(UTC+00:00)

NOSS 3-3 (C) - Pass Details

Date: 27 October 2020
Orbit: 825 x 1387 km, 63.4° (Epoch: 22 November)

Event Time Altitude Azimuth Distance (km) Brightness Sun altitude
Rises 17:42:06 0° 187° (S) 3,379 7.0 -11.8°
Reaches altitude 10° 17:44:39 10° 178° (S) 2,484 6.2 -12.2°
Maximum altitude 17:49:46 35° 114° (ESE) 1,430 4.5 -13.1°
Enters shadow 17:54:22 15° 56° (NE) 2,401 5.5 -14.0°
